Home > Weather > Toronto > Past weeks

Flag for Canada Past Weather in Toronto, Ontario, Canada — Yesterday and Last 2 Weeks

Now
82 °F

Partly sunny.


Feels Like: 82 °F
Forecast: N/A
Wind: 16 mph from Southwest

Location: Toronto Pearson International Airport

Current Time: Aug 24, 2016 at 7:39:08 PM

Latest Report: Aug 24, 2016 at 7:00 PM


Visibility: 15 mi

Pressure: 30.00 "Hg

Humidity: 42%

Dew Point: 57 °F

Location of TorontoLocation

Past Weather in Toronto — Graph

°F

Toronto Temperature Yesterday

Maximum temperature yesterday: 84 °F (at 5:00 PM)
Minimum temperature yesterday: 59 °F (at 7:00 AM)
Average temperature yesterday: 72 °F

High & Low Weather Summary for the Past Weeks

 TemperatureHumidityPressure
High95 °F (Aug 10, 3:00 PM)94% (Aug 13, 6:00 AM)30.25 "Hg (Aug 13, 6:00 AM)
Low57 °F (Aug 22, 6:00 AM)30% (Aug 10, 3:00 PM)29.56 "Hg (Aug 21, 5:00 AM)
Average76 °F68%29.97 "Hg
* Reported Aug 9 6:00 PM — Aug 24 6:00 PM, Toronto, Weather by CustomWeather, © 2016

Note: Actual official high and low records may vary slightly from our data, if they occured in-between our weather recording intervals... More about our weather records

Advertising

Toronto Weather History for the Previous 24 Hours

Scroll right to see more
 ConditionsComfort  
Time TempWeatherWind HumidityBarometerVisibility
6:00 PM
Wed, Aug 24
84 °FBroken clouds.14 mph40%30.01 "Hg15 mi
5:00 PM84 °FBroken clouds.17 mph40%30.02 "Hg15 mi
4:00 PM86 °FPartly sunny.18 mph40%30.03 "Hg15 mi
3:00 PM84 °FPartly sunny.16 mph43%30.06 "Hg15 mi
2:00 PM82 °FPartly sunny.13 mph51%30.08 "Hg15 mi
1:00 PM81 °FBroken clouds.13 mph54%30.10 "Hg15 mi
12:00 PM79 °FBroken clouds.13 mph58%30.13 "Hg15 mi
11:00 AM77 °FPartly sunny.8 mph61%30.16 "Hg15 mi
10:00 AM77 °FScattered clouds.6 mph57%30.16 "Hg15 mi
9:00 AM73 °FScattered clouds.6 mph69%30.18 "Hg15 mi
8:00 AM68 °FScattered clouds.No wind78%30.20 "Hg15 mi
7:00 AM66 °FPassing clouds.3 mph78%30.21 "Hg15 mi
6:00 AM63 °FPassing clouds.3 mph83%30.20 "Hg15 mi
5:00 AM63 °FClear.2 mph83%30.19 "Hg15 mi
4:00 AM64 °FClear.5 mph73%30.18 "Hg15 mi
3:00 AM64 °FPassing clouds.8 mph78%30.17 "Hg15 mi
2:00 AM66 °FClear.7 mph68%30.18 "Hg15 mi
1:00 AM68 °FPassing clouds.6 mph64%30.20 "Hg15 mi
12:00 AM70 °FPassing clouds.7 mph60%30.20 "Hg15 mi
11:00 PM
Tue, Aug 23
72 °FPassing clouds.9 mph53%30.21 "Hg15 mi
10:00 PM73 °FPassing clouds.8 mph53%30.22 "Hg15 mi
9:00 PM75 °FScattered clouds.10 mph54%30.21 "Hg15 mi
8:00 PM77 °FBroken clouds.14 mph51%30.20 "Hg15 mi
7:00 PM81 °FScattered clouds.13 mph48%30.19 "Hg15 mi
Weather by CustomWeather, © 2016

See weather overviewHow to use our weather pages